TimeCST,TemperatureF,Dew PointF,Humidity,Sea Level PressureIn,VisibilityMPH,Wind Direction,Wind SpeedMPH,Gust SpeedMPH,PrecipitationIn,Events,Conditions,WindDirDegrees,DateUTC
12:52 AM,30.9,16.0,54,30.39,10.0,South,9.2,-,N/A,,Clear,190,2012-11-13 06:52:00
1:52 AM,30.0,15.1,54,30.38,10.0,SSW,9.2,-,N/A,,Clear,200,2012-11-13 07:52:00
2:52 AM,34.0,10.9,38,30.35,10.0,SW,12.7,-,N/A,,Clear,220,2012-11-13 08:52:00
3:52 AM,33.1,10.9,40,30.34,10.0,SSW,11.5,-,N/A,,Clear,210,2012-11-13 09:52:00
4:52 AM,33.1,12.0,42,30.33,10.0,SSW,11.5,-,N/A,,Clear,210,2012-11-13 10:52:00
5:52 AM,30.9,12.9,47,30.33,10.0,SSW,9.2,-,N/A,,Clear,210,2012-11-13 11:52:00
6:52 AM,28.9,14.0,54,30.36,10.0,SSW,8.1,-,N/A,,Clear,200,2012-11-13 12:52:00
7:52 AM,30.0,15.1,54,30.36,10.0,SSW,13.8,-,N/A,,Clear,200,2012-11-13 13:52:00
8:52 AM,34.0,16.0,48,30.36,10.0,SSW,12.7,-,N/A,,Clear,200,2012-11-13 14:52:00
9:52 AM,42.1,19.0,40,30.35,10.0,SSW,13.8,-,N/A,,Clear,210,2012-11-13 15:52:00
10:52 AM,46.0,19.0,34,30.33,10.0,SSW,17.3,25.3,N/A,,Clear,200,2012-11-13 16:52:00
11:52 AM,50.0,19.0,29,30.29,10.0,SSW,18.4,25.3,N/A,,Clear,200,2012-11-13 17:52:00
12:52 PM,52.0,18.0,26,30.24,10.0,South,20.7,26.5,N/A,,Clear,180,2012-11-13 18:52:00
1:52 PM,57.0,12.0,17,30.19,10.0,South,21.9,31.1,N/A,,Clear,190,2012-11-13 19:52:00
2:52 PM,55.0,12.0,18,30.16,10.0,South,26.5,33.4,N/A,,Clear,180,2012-11-13 20:52:00
3:52 PM,53.1,15.1,22,30.17,10.0,South,21.9,29.9,N/A,,Clear,180,2012-11-13 21:52:00
4:52 PM,53.1,17.1,24,30.18,10.0,South,18.4,-,N/A,,Partly Cloudy,170,2012-11-13 22:52:00
5:52 PM,46.9,19.0,33,30.20,10.0,SSE,11.5,-,N/A,,Clear,150,2012-11-13 23:52:00
6:52 PM,39.9,19.9,45,30.23,10.0,SE,10.4,-,N/A,,Clear,130,2012-11-14 00:52:00
7:52 PM,37.9,19.9,48,30.25,10.0,SE,10.4,-,N/A,,Clear,130,2012-11-14 01:52:00
8:52 PM,39.9,21.0,47,30.25,10.0,SSE,11.5,-,N/A,,Clear,150,2012-11-14 02:52:00
9:52 PM,37.0,21.0,52,30.26,10.0,SSE,10.4,-,N/A,,Clear,160,2012-11-14 03:52:00
10:52 PM,36.0,19.0,50,30.25,10.0,SSE,16.1,-,N/A,,Clear,160,2012-11-14 04:52:00
11:52 PM,35.1,18.0,50,30.22,10.0,SSE,13.8,-,N/A,,Clear,160,2012-11-14 05:52:00